www.pogodaiklimat.ru

Погода и климат >> Архив погоды >> Россия >> Магаданская область >> Кегали


ПОГОДА в Кегали

  • Прогноз погоды в Кегали
  • Монитор погоды в Кегали

АРХИВ ПОГОДЫ в Кегали

Время (UTC), дата Ветер
(напр.,м/с)
 
Видим.   Явления Облачность Т
(С)
Тd
(С)
f
(%)
Тe
(С)
Тes
(С)
Комфортность P
(гПа)
Po
(гПа)
Тmin
(С)
Tmax
(С)
R
(мм)
R24
(мм)
S
(см)
09 19.04 С 1 50 км 8/3 1000 м
[Sc Ci fib]
-1.3 -8.7 57 -3 -3 1022.8 976.0 +5.0
12 19.04 ЮВ 2 50 км 8/1 1000 м
[Sc Ci fib]
-8.8 -11.8 79 -13 -13 1024.1 976.0
15 19.04 ЮВ 2 50 км 10/0
[Cs]
-12.6 -14.4 86 -17 -17 1026.2 977.3
18 19.04 штиль 0 50 км 8/0
[Ci fib]
-16.6 -18.0 89 -17 -17 1027.0 977.3
21 19.04 ЮЗ 1 50 км 9/0
[Ci fib]
-9.4 -12.8 76 -12 -8 1023.3 975.0 -16.8 46
00 20.04 З 1 50 км 10/3 1000 м
[Sc Cs]
-3.0 -9.0 63 -5 -5 1020.2 973.3
03 20.04 ЮВ 3 4000 м слаб. ливневой снег 10/10 600 м
[Cb cap]
-1.9 -3.8 87 -7 -7 1017.3 970.7
06 20.04 Ю 3 50 км {ливн. осадки} 10/10 600 м
[Cb cap]
-0.8 -3.6 81 -6 -6 1017.1 970.7
09 20.04 СЗ 6 50 км слаб. ливневой снег 8/8 600 м
[Cb cap]
-3.1 -5.6 83 -10 -10 1018.9 972.0 -0.7 2
12 20.04 СЗ 6 50 км {ливн. осадки} 8/8 600 м
[Cb cap]
-5.1 -7.7 82 -13 -13 1022.1 974.7
15 20.04 С 2 50 км 6/6 600 м
[Cb cap]
-7.7 -9.6 86 -12 -12 1023.9 976.0
18 20.04 штиль 0 50 км 4/4 1000 м
[Sc]
-10.0 -10.9 93 -10 -10 1025.7 977.3
21 20.04 СЗ 1 50 км 4/3 1000 м
[Sc Ci fib]
-7.7 -11.0 77 -10 -7 1024.8 976.8 -11.5 48
00 21.04 СЗ 3 50 км 4/4 1000 м
[Sc]
-4.8 -10.2 66 -10 -6 1024.8 977.3
03 21.04 СЗ 2 50 км 4/3 1000 м
[Sc Ci fib]
-2.7 -10.2 56 -6 -2 1024.4 977.3
06 21.04 СЗ 1 50 км 3/1 1000 м
[Sc Ci fib]
-2.0 -11.8 47 -3 -1 1024.3 977.3
09 21.04 З 1 50 км 3/0
[Ci fib]
-8.5 -13.7 66 -11 -11 1025.4 977.3 -1.9
12 21.04 ЮВ 1 50 км 3/0
[Ci fib]
-13.8 -16.5 80 -16 -16 1026.5 977.3
15 21.04 ЮВ 2 50 км 3/1 1000 м
[Sc Ci fib]
-18.8 -20.5 86 -24 -24 1027.5 977.3
18 21.04 штиль 0 50 км 4/4 1000 м
[Sc]
-15.3 -17.0 87 -15 -15 1025.4 976.0
21 21.04 штиль 0 50 км 10/10 600 м
[Cb cap]
-9.6 -12.0 83 -10 -10 1022.7 974.4 -19.5 48
00 22.04 В 3 50 км 10/10 1000 м
[Sc]
-1.7 -6.4 70 -6 -6 1021.5 974.7
03 22.04 Ю 5 50 км 9 баллов +0.7 -5.7 62 -5 -4 1019.6 973.3
06 22.04 ЮВ 4 50 км 10/10 1000 м
[Sc]
+0.7 -5.5 63 -4 -4 1018.2 972.0
09 22.04 Ю 3 50 км 10/10 1000 м
[Sc]
-0.5 -4.7 73 -5 -5 1018.4 972.0 +1.0
12 22.04 Ю 3 50 км 10/10 1000 м
[Sc]
-1.0 -4.9 75 -6 -6 1018.5 972.0
15 22.04 ЮВ 4 50 км 10/10 1000 м
[Sc]
-1.4 -5.4 74 -7 -7 1018.6 972.0
18 22.04 Ю 5
{10}
50 км 10/10 1000 м
[Sc]
-2.1 -5.9 75 -8 -8 1018.0 971.3
21 22.04 Ю 5
{10}
50 км 10/10 1000 м
[Sc]
-1.8 -6.5 70 -8 -8 1018.0 971.3 -2.2 47
00 23.04 Ю 7-11
{12}
50 км 9/9 1000 м
[Sc]
-0.9 -7.9 59 -8 -8 1018.5 972.0
03 23.04 Ю 7-12
{12}
50 км 10/10 1000 м
[Sc]
-0.7 -7.6 60 -7 -7 1017.3 970.9
06 23.04 Ю 4
{12}
50 км 10/10 1000 м
[Sc]
-1.0 -6.9 64 -6 -6 1018.5 972.0
09 23.04 Ю 4
{11}
50 км 10/10 1000 м
[Sc]
-2.0 -6.7 70 -8 -8 1018.7 972.0 -0.4
12 23.04 Ю 4 50 км 10/10 1000 м
[Sc]
-2.7 -6.7 74 -9 -9 1018.8 972.0
15 23.04 Ю 2 50 км 10/10 1000 м
[Sc]
-3.3 -7.3 74 -7 -7 1018.9 972.0
18 23.04 Ю 1 50 км 10/10 1000 м
[Sc]
-3.9 -7.2 78 -6 -6 1019.0 972.0
21 23.04 Ю 4 50 км 10/10 1000 м
[Sc]
-3.2 -7.4 73 -9 -9 1017.5 970.7 -4.0 47
00 24.04 Ю 4 50 км 9 баллов -1.8 -7.5 65 -7 -7 1018.7 972.0
03 24.04 Ю 5 50 км 7 баллов -0.5 -7.1 61 -6 -5 1017.1 970.7
06 24.04 Ю 4 50 км 7 баллов -0.8 -7.2 62 -6 -5 1017.1 970.7
09 24.04 ЮВ 2 50 км 9/9 1000 м
[Sc]
-1.8 -7.1 67 -5 -5 1017.3 970.7 -0.2
12 24.04 ЮВ 2 50 км 9/9 1000 м
[Sc]
-2.8 -7.0 73 -7 -7 1017.5 970.7
15 24.04 Ю 1 50 км 8/8 1000 м
[Sc]
-3.2 -7.2 74 -5 -5 1017.5 970.7
18 24.04 Ю 1 50 км 9/9 1000 м
[Sc]
-3.3 -6.6 78 -5 -5 1017.6 970.7
21 24.04 Ю 3 50 км 10/10 1000 м
[Sc]
-2.0 -6.7 70 -7 -7 1016.4 969.8 46
00 25.04 Ю 3 50 км 10/10 1000 м
[Sc]
+0.2 -6.0 63 -4 -4 1016.9 970.7 -4.0
03 25.04 ЮВ 5
{10}
50 км 9/9 1000 м
[Sc]
+0.7 -6.4 59 -5 -4 1015.4 969.3
06 25.04 Ю 3 50 км 9/9 1000 м
[Sc]
+0.7 -6.4 59 -3 -3 1015.4 969.3
09 25.04 ЮВ 3 50 км 8/5 1000 м
[Sc Ci fib]
-0.9 -6.2 67 -5 -5 1015.7 969.3 +1.3
12 25.04 ЮВ 1 50 км 9 баллов -3.6 -7.0 77 -6 -6 1014.8 968.0
15 25.04 Ю 1 50 км 9 баллов -4.1 -6.1 86 -6 -6 1014.9 968.0
18 25.04 ЮЗ 1 50 км 10 баллов -4.2 -5.9 88 -7 -7 1013.5 966.7
21 25.04 ЮВ 5 50 км 10/10 1000 м
[Sc]
-0.6 -5.2 71 -7 -7 1010.1 964.0 -6.3 46
00 26.04 В 4 50 км 10 баллов +0.2 -5.6 65 -5 -5 1008.6 962.7
03 26.04 В 5 50 км 10 баллов -0.2 -5.2 69 -6 -6 1005.8 960.0

 

Местоположение метеостанции Кегали (Магаданская область, Россия): широта 64.25 долгота 161.00 высота над уровнем моря 374 м.

В архиве по умолчанию представлена погода в Кегали за последнюю неделю. Архивные данные за месяц целиком и за предыдущие месяцы, начиная с января 2011 года, Вы можете получить, выбрав интересующий диапазон дат из раскрывающегося списка и нажав кнопку "Ввод!".


*Определитесь, кто Вы:
робот инопланетянин человек

Внимание! Время в таблицах - всемирное. Для получения местного времени необходимо прибавить поправку, которая равна 11 ч.

Смотрите также архив погоды в соседних городах и на ближайших метеорологических станциях:

Погода в Омолоне (Чукотка, Россия) (112 км)
Погода в Верхне-Пенжино (Камчатский край, Россия) (155 км)
Погода в Лабазной (Магаданская область, Россия) (162 км)
Погода в Эвенске (Магаданская область, Россия) (275 км)
Погода в Баимке (Чукотка, Россия) (294 км)
Погода в Омсукчане (Магаданская область, Россия) (323 км)
Погода в Каменском (Камчатский край, Россия) (325 км)
Погода в Балыгычане (Магаданская область, Россия) (337 км)
Погода в Коркодоне (Магаданская область, Россия) (344 км)
Погода в Слаутном (Камчатский край, Россия) (354 км)

Пояснения к столбцам:

Ветер - указаны скорость ветра в м/с - средняя за 10 мин, порывы в срок и между сроками (в фигурных скобках) и направление, откуда дует ветер: С - северный, СВ - северо-восточный, В - восточный, ЮВ - юго-восточный, Ю - южный, ЮЗ - юго-западный, З - западный, СЗ - северо-западный.
Видимость - горизонтальная дальность видимости в метрах или километрах. При видимости от 1 до 10 км при отсутствии осадков обычно наблюдается дымка, при ухудшении видимости до 1 км и менее - туман. В сухую погоду видимость может ухудшаться дымом, пылью или мглою.
Явления - указаны атмосферные явления, наблюдавшиеся в срок или в последний час перед сроком; фигурными скобками обозначены явления, наблюдавшиеся между сроками (за 1-3 часа до срока); квадратными скобками обозначены град или гололедные отложения с указанием их диаметра в мм.
Облачность - указаны через наклонную черту общая и нижняя облачность в баллах и высота нижней границы облаков в метрах; квадратными скобками обозначены формы облаков: Ci - перистые, Cs - перисто-слоистые, Cc - перисто-кучевые, Ac - высококучевые, As - высокослоистые, Sc - слоисто-кучевые, Ns - слоисто-дождевые, Cu - кучевые, Cb - кучево-дождевые. Подробнее классификацию облаков см. в Атласе облаков (PDF).
T - Температура воздуха - температура, измеренная на высоте 2 м над землей.
Td - Температура точки росы - температура, при понижении до которой содержащийся в воздухе водяной пар достигнет насыщения.
f - Относительная влажность воздуха - влажноcть воздуха, измеренная на высоте 2 м над землей.
Te - Эффективная температура - температура, которую ощущает одетый по сезону человек в тени. Характеристика душности погоды. При расчете учитывается влияние влажности воздуха и скорости ветра на теплоощущения человека.
Tes - Эффективная температура на солнце - температура, которую ощущает человек, с поправкой на солнечный нагрев. Характеристика знойности погоды. Зависит от высоты солнца над горизонтом, облачности и скорости ветра. Ночью, в пасмурную погоду, а также при ветре 12 м/с и более поправка равна нулю.
P - Атмосферное давление - приведенное к уровню моря атмосферное давление.
Po - Атмосферное давление - измеренное на уровне метеостанции атмосферное давление.
Tmin - Минимальная температура - минимум температуры воздуха на высоте 2 м над землей.
Tmax - Максимальная температура - максимум температуры воздуха на высоте 2 м над землей.
R - Количество осадков - Количество выпавших осадков за период времени, мм. При наведении курсора мыши на число - период времени, за который выпало указанное количество осадков.
R24 - Количество осадков - Количество выпавших осадков за 24 часа, мм.
S - Снежный покров - Высота снежного покрова, см. При наведении курсора мыши на число - состояние снежного покрова и степень покрытия местности в баллах.